[[{"header":{"parameterUnit":"m.s-1","parameterCategory":1,"la1":30.2991,"la2":30.254,"lo1":-89.0895,"lo2":-89.0444,"dy":0.0017,"dx":0.0017,"nx":28,"ny":28,"refTime":"2023-10-11T03:00:00:Z","depth":0,"parameterNumber":2,"parameterNumberName":"U-component_of_WINDS"},"data":[0,0,0,0,0,0,0,0,0,0,0,0,0,0,0,0,0,0,0,0,0,0,0,0,0,0,0,0,0,0,0,0,0,0,0,0,0,0,0,0,0,0,0,0,0,0,0,0,0,0,0,0,0,0,0,0,0,0,-3.7141,-3.714,0,-3.7126,-3.7126,-3.7126,-3.6949,-3.6945,-3.694,-3.6936,-3.6924,-3.6928,-3.6932,0,0,0,0,0,0,0,0,0,0,0,0,0,-3.7018,-3.7021,-3.7141,-3.714,-3.714,-3.7126,-3.7126,-3.7126,-3.695,-3.6945,-3.6939,-3.6934,-3.6923,-3.6927,-3.6932,0,0,0,0,0,0,0,0,0,0,0,0,0,-3.7044,-3.7022,-3.7141,-3.7051,-3.7043,-3.7126,-3.7126,-3.7126,-3.6951,-3.6945,-3.6938,-3.6932,-3.6921,-3.6927,-3.6933,-3.7102,0,0,-3.695,-3.6953,0,0,0,0,0,0,0,0,-3.7043,-3.7049,-3.7064,-3.7057,-3.7048,-3.7033,-3.7078,-3.7118,-3.6953,-3.6986,-3.6936,-3.6928,-3.6966,-3.6967,-3.6979,-3.7101,-3.7101,-3.6951,-3.6954,-3.6957,-3.6958,0,0,0,0,0,0,0,-3.7041,-3.7049,-3.7135,-3.7065,-3.7055,-3.7012,-3.7008,-3.7085,-3.7014,-3.6983,-3.697,-3.697,-3.696,-3.6974,-3.6978,-3.7101,-3.6951,-3.6956,-3.6959,-3.6961,-3.7361,-3.7368,0,0,0,0,0,0,-3.7052,-3.7048,-3.7135,-3.7134,-3.7029,-3.7019,-3.7015,-3.7044,-3.7012,-3.7001,-3.6976,-3.6962,-3.6968,-3.6971,-3.6977,-3.7173,-3.6957,-3.6962,-3.6965,-3.7354,-3.7362,-3.737,0,0,0,0,0,0,-3.705,-3.7061,-3.7136,-3.7088,-3.7094,-3.7029,-3.7063,-3.7048,-3.7062,-3.7007,-3.6994,-3.7004,-3.6963,-3.6969,-3.7072,-3.717,-3.6965,-3.697,-3.7345,-3.7356,-3.7366,-3.7568,0,0,0,0,0,0,-3.7047,-3.7061,-3.7125,-3.7091,-3.7097,-3.7232,-3.7069,-3.7052,-3.7072,-3.7053,-3.703,-3.7019,-3.6958,-3.7064,-3.7078,-3.7175,-3.6974,-3.7336,-3.735,-3.7363,-3.7552,-3.7584,-3.7612,0,0,0,0,0,-3.7043,-3.7183,-3.7129,-3.7141,-3.7175,-3.7238,-3.7241,-3.7167,-3.708,-3.7144,-3.7109,-3.702,-3.7157,-3.7076,-3.709,-3.719,-3.733,-3.7346,-3.7362,-3.7539,-3.7578,-3.7611,0,0,0,0,0,0,-3.7232,-3.7177,-3.7116,-3.7249,-3.7249,-3.7208,-3.7285,-3.7211,-3.7236,-3.7218,-3.7125,-3.7122,-3.724,-3.7224,-3.7136,-3.7352,-3.7228,-3.7248,-3.7358,-3.7395,-3.7424,-3.7426,-3.6979,0,0,0,0,0,-3.7288,-3.7343,-3.7292,-3.7414,-3.7417,-3.7352,-3.7376,-3.7319,-3.7316,-3.7315,-3.7287,-3.7289,-3.7331,-3.7362,-3.7398,-3.7549,-3.7541,-3.7624,-3.7654,-3.7679,-3.7697,-3.7776,-3.7813,-3.7423,-3.7423,-3.7423,0,0,-3.7407,-3.7384,-3.7424,-3.7452,-3.7445,-3.7504,-3.7353,-3.7422,-3.7466,-3.7326,-3.7421,-3.7402,-3.7396,-3.7524,-3.7579,-3.7515,-3.7803,-3.7699,-3.7719,-3.7724,-3.7797,-3.7834,-3.7866,-3.7434,-3.7432,-3.743,0,0,-3.7653,-3.7641,-3.7741,-3.7737,-3.7728,-3.7684,-3.7708,-3.7678,-3.7659,-3.7753,-3.7649,-3.77,-3.7776,-3.7776,-3.7787,-3.8033,-3.7953,-3.8047,-3.8203,-3.8281,-3.8312,-3.8339,-3.8428,-3.846,-3.8066,-3.8066,-3.8066,0,-3.7802,-3.7886,-3.7802,-3.7878,-3.7894,-3.7768,-3.787,-3.787,-3.7875,-3.7889,-3.7817,-3.791,-3.7897,-3.8024,-3.8084,-3.8096,-3.8122,-3.805,-3.8314,-3.834,-3.8364,-3.8448,-3.8481,-3.8078,-3.8076,-3.8075,-3.8074,0,-3.807,-3.813,-3.8212,-3.8219,-3.8243,-3.8332,-3.8262,-3.8297,-3.8237,-3.8201,-3.8298,-3.8279,-3.831,-3.8335,-3.8278,-3.8454,-3.8414,-3.833,-3.8203,-3.8414,-3.8491,-3.8523,-3.8094,-3.809,-3.8087,-3.8084,0,0,-3.8436,-3.8394,-3.8426,-3.8427,-3.8408,-3.8453,-3.8536,-3.8565,-3.8597,-3.8604,-3.8672,-3.8739,-3.8661,-3.8673,-3.8614,-3.8683,-3.888,-3.8589,-3.8588,-3.8645,-3.9073,-3.9138,-3.9177,-3.8825,-3.8831,-3.8836,-3.9074,0,-3.8674,-3.8813,-3.8739,-3.8888,-3.8943,-3.8824,-3.8896,-3.8893,-3.8861,-3.8903,-3.8867,-3.8916,-3.8808,-3.8815,-3.8877,-3.8843,-3.8965,-3.8824,-3.8889,-3.8892,-3.8896,-3.9217,-3.9285,-3.9512,-3.9104,-3.9109,-3.9112,0,-3.8971,-3.899,-3.9144,-3.9114,-3.9134,-3.9201,-3.9221,-3.9263,-3.9257,-3.9228,-3.9242,-3.9167,-3.9246,-3.912,-3.9229,-3.9135,-3.9157,-3.9144,-3.9151,-3.9156,-3.9017,-3.9231,-3.9582,-3.9617,-3.9159,-3.9155,-3.9152,0,-3.9224,-3.9288,-3.9388,-3.9393,-3.9361,-3.941,-3.9399,-3.9386,-3.9408,-3.9426,-3.9439,-3.9467,-3.9483,-3.9507,-3.9441,-3.9355,-3.956,-3.9428,-3.954,-3.9542,-3.959,-3.9588,-3.995,-3.9602,-3.9602,-3.9601,-3.96,0,-3.9499,-3.9598,-3.9501,-3.9564,-3.9671,-3.9586,-3.9695,-3.9671,-3.9661,-3.9716,-3.9615,-3.967,-3.958,-3.9626,-3.9575,-3.9674,-3.9681,-3.9661,-3.9647,-3.9672,-3.9674,-3.9686,-3.9669,-3.961,-3.9608,-3.9606,-3.9605,0,-3.9801,-3.974,-3.9841,-3.9802,-3.9794,-3.9876,-3.9842,-3.9898,-3.9858,-3.993,-3.9942,-3.9881,-3.9929,-3.9866,-3.9909,-3.9875,-4.001,-3.9971,-4.0013,-4.0002,-4.0118,-4.0109,-4.0501,-4.0549,-4.017,-4.0173,-4.0176,0,-3.9981,-4.0054,-4.0022,-4.0052,-4.0046,-4.0096,-4.0117,-4.0035,-4.0062,-4.0061,-4.0118,-4.0157,-4.0185,-4.0269,-4.0229,-4.0261,-4.0223,-4.0358,-4.0228,-4.025,-4.0227,-4.0224,-4.0231,-4.0386,-4.0391,-4.0394,-4.0397,0,-4.0307,-4.0273,-4.0307,-4.0332,-4.0361,-4.0376,-4.0385,-4.0415,-4.0329,-4.0365,-4.0413,-4.0435,-4.0478,-4.052,-4.0541,-4.053,-4.0451,-4.0439,-4.0466,-4.0493,-4.0514,-4.0505,-4.0087,-4.043,-4.0427,-4.0425,-4.0423,-4.0422,-4.0554,-4.0613,-4.06,-4.0642,-4.064,-4.065,-4.07,-4.0666,-4.0705,-4.0733,-4.0682,-4.0744,-4.0735,-4.0756,-4.0754,-4.0801,-4.0743,-4.0783,-4.0793,-4.0805,-4.0823,-4.0505,-4.0805,-4.0804,-4.0803,-4.0802,-4.0801,0,-4.0876,-4.0861,-4.09,-4.0914,-4.0948,-4.0868,-4.0873,-4.0907,-4.0962,-4.096,-4.0989,-4.1045,-4.1084,-4.1047,-4.1079,-4.1124,-4.1089,-4.1136,-4.1132,-4.1131,-4.0873,-4.0846,-4.1164,-4.1164,-4.1164,-4.1164,-4.1164,-4.1164,-4.1047,-4.1144,-4.1109,-4.1204,-4.1188,-4.1247,-4.1257,-4.1265,-4.1263,-4.133,-4.1362,-4.1336,-4.1321,-4.1351,-4.1384,-4.1372,-4.1389,-4.145,-4.1425,-4.1185,-4.115,-4.1116,-4.109,-4.1454,-4.1454,-4.1679,-4.1681,-4.1683]},{"header":{"parameterUnit":"m.s-1","parameterCategory":1,"la1":30.2991,"la2":30.254,"lo1":-89.0895,"lo2":-89.0444,"dy":0.0017,"dx":0.0017,"nx":28,"ny":28,"refTime":"2023-10-11T03:00:00:Z","depth":0,"parameterNumber":3,"parameterNumberName":"V-component_of_WINDS"},"data":[0,0,0,0,0,0,0,0,0,0,0,0,0,0,0,0,0,0,0,0,0,0,0,0,0,0,0,0,0,0,0,0,0,0,0,0,0,0,0,0,0,0,0,0,0,0,0,0,0,0,0,0,0,0,0,0,0,0,-2.204,-2.204,0,-2.2063,-2.2063,-2.2063,-2.2056,-2.2055,-2.2055,-2.2054,-2.2077,-2.2078,-2.2079,0,0,0,0,0,0,0,0,0,0,0,0,0,-2.1987,-2.1988,-2.204,-2.204,-2.204,-2.2063,-2.2063,-2.2063,-2.2056,-2.2055,-2.2054,-2.2054,-2.2077,-2.2078,-2.2079,0,0,0,0,0,0,0,0,0,0,0,0,0,-2.201,-2.1988,-2.204,-2.2039,-2.2039,-2.2063,-2.2063,-2.2063,-2.2056,-2.2055,-2.2054,-2.2054,-2.2076,-2.2078,-2.2079,-2.2104,0,0,-2.2084,-2.2085,0,0,0,0,0,0,0,0,-2.2009,-2.2012,-2.2039,-2.2039,-2.2039,-2.2055,-2.2053,-2.2077,-2.2056,-2.2049,-2.2054,-2.2053,-2.207,-2.2072,-2.2078,-2.2105,-2.2106,-2.2084,-2.2085,-2.2086,-2.2087,0,0,0,0,0,0,0,-2.2007,-2.2011,-2.2049,-2.2039,-2.204,-2.2037,-2.204,-2.2057,-2.2064,-2.205,-2.2049,-2.2052,-2.207,-2.2077,-2.2079,-2.2107,-2.2084,-2.2086,-2.2087,-2.2088,-2.2153,-2.2154,0,0,0,0,0,0,-2.2006,-2.201,-2.2048,-2.2049,-2.2022,-2.2039,-2.2041,-2.2051,-2.2064,-2.2065,-2.2053,-2.2052,-2.2074,-2.2077,-2.208,-2.2108,-2.2086,-2.2088,-2.2089,-2.2153,-2.2153,-2.2154,0,0,0,0,0,0,-2.2005,-2.2009,-2.2047,-2.2029,-2.2034,-2.204,-2.2051,-2.2052,-2.2058,-2.2066,-2.2067,-2.2059,-2.2074,-2.2077,-2.2098,-2.2109,-2.2088,-2.209,-2.2152,-2.2153,-2.2154,-2.2167,0,0,0,0,0,0,-2.2003,-2.2009,-2.2019,-2.203,-2.2035,-2.2066,-2.2052,-2.2053,-2.2061,-2.206,-2.2071,-2.2072,-2.2074,-2.2095,-2.2099,-2.2111,-2.2091,-2.2151,-2.2152,-2.2153,-2.2165,-2.2168,-2.2171,0,0,0,0,0,-2.2001,-2.2022,-2.202,-2.2024,-2.2048,-2.2066,-2.2069,-2.207,-2.2062,-2.2072,-2.2076,-2.2072,-2.2107,-2.2098,-2.2102,-2.2114,-2.215,-2.2152,-2.2153,-2.2164,-2.2168,-2.2171,0,0,0,0,0,0,-2.2013,-2.2024,-2.2021,-2.2046,-2.2055,-2.2065,-2.2077,-2.2074,-2.2086,-2.2085,-2.2085,-2.2088,-2.2108,-2.2113,-2.2103,-2.2138,-2.2127,-2.213,-2.2134,-2.2137,-2.214,-2.2138,-2.2092,0,0,0,0,0,-2.2018,-2.2033,-2.2041,-2.2062,-2.2067,-2.2071,-2.2079,-2.2079,-2.2089,-2.2093,-2.2099,-2.2108,-2.2121,-2.213,-2.2142,-2.2166,-2.2168,-2.2176,-2.2179,-2.2181,-2.2183,-2.2195,-2.2198,-2.216,-2.216,-2.216,0,0,-2.203,-2.2037,-2.2046,-2.2065,-2.2072,-2.2086,-2.2075,-2.2091,-2.2101,-2.2095,-2.2115,-2.2119,-2.2129,-2.2151,-2.2161,-2.2156,-2.2194,-2.2183,-2.2185,-2.2186,-2.2197,-2.22,-2.2204,-2.2161,-2.2161,-2.2161,0,0,-2.2058,-2.2065,-2.2083,-2.209,-2.2101,-2.2103,-2.2107,-2.2117,-2.212,-2.2139,-2.2135,-2.2147,-2.2169,-2.2176,-2.2183,-2.2211,-2.2207,-2.2215,-2.2229,-2.224,-2.2243,-2.2246,-2.2254,-2.2258,-2.2217,-2.2217,-2.2217,0,-2.207,-2.2092,-2.2092,-2.2108,-2.2115,-2.2111,-2.2128,-2.2134,-2.2149,-2.2154,-2.2148,-2.2175,-2.2182,-2.2204,-2.2211,-2.2217,-2.222,-2.2214,-2.2242,-2.2245,-2.2248,-2.2256,-2.2259,-2.2218,-2.2218,-2.2218,-2.2218,0,-2.2106,-2.2121,-2.2134,-2.2147,-2.2156,-2.2172,-2.2174,-2.2183,-2.2182,-2.2185,-2.2204,-2.2211,-2.2224,-2.223,-2.2229,-2.2252,-2.2248,-2.2242,-2.2231,-2.2252,-2.226,-2.2263,-2.2219,-2.2219,-2.2219,-2.2219,0,0,-2.2143,-2.2155,-2.216,-2.2165,-2.2175,-2.2186,-2.2202,-2.2214,-2.2221,-2.2231,-2.2243,-2.2261,-2.2256,-2.2263,-2.2263,-2.2273,-2.2292,-2.2265,-2.2266,-2.2269,-2.2316,-2.232,-2.2324,-2.229,-2.2291,-2.2291,-2.2315,0,-2.2171,-2.2198,-2.2198,-2.2223,-2.2235,-2.223,-2.2243,-2.225,-2.2253,-2.2264,-2.2266,-2.2279,-2.2271,-2.2275,-2.2285,-2.2288,-2.2302,-2.2286,-2.23,-2.2301,-2.2297,-2.2328,-2.2332,-2.2354,-2.2318,-2.2319,-2.2319,0,-2.2207,-2.2217,-2.2243,-2.225,-2.2255,-2.2267,-2.2277,-2.2288,-2.2296,-2.2297,-2.2304,-2.2302,-2.2316,-2.2305,-2.2324,-2.2314,-2.2319,-2.2322,-2.2322,-2.2323,-2.2311,-2.2329,-2.2362,-2.2365,-2.2324,-2.2324,-2.2323,0,-2.223,-2.2249,-2.2267,-2.2272,-2.2281,-2.2289,-2.2293,-2.23,-2.2307,-2.2316,-2.232,-2.2331,-2.2336,-2.2344,-2.2344,-2.2337,-2.2363,-2.2353,-2.2364,-2.2364,-2.2369,-2.2369,-2.2403,-2.2375,-2.2374,-2.2374,-2.2374,0,-2.226,-2.2276,-2.2277,-2.2288,-2.2304,-2.2304,-2.232,-2.2323,-2.2329,-2.234,-2.2336,-2.2346,-2.2346,-2.2356,-2.2356,-2.2371,-2.2374,-2.2375,-2.2375,-2.2375,-2.2375,-2.2378,-2.2376,-2.2375,-2.2375,-2.2375,-2.2375,0,-2.2288,-2.229,-2.2308,-2.2314,-2.2316,-2.2328,-2.2333,-2.2343,-2.2345,-2.2358,-2.2361,-2.2364,-2.2375,-2.2376,-2.2389,-2.2389,-2.2407,-2.2406,-2.2404,-2.2404,-2.2414,-2.2413,-2.2451,-2.2456,-2.2425,-2.2426,-2.2426,0,-2.2307,-2.2319,-2.2326,-2.2333,-2.2337,-2.2348,-2.2354,-2.2354,-2.2361,-2.2369,-2.2378,-2.2388,-2.2397,-2.2415,-2.2418,-2.2427,-2.2425,-2.2438,-2.2427,-2.2426,-2.2424,-2.2423,-2.2424,-2.244,-2.2441,-2.2441,-2.2441,0,-2.2341,-2.234,-2.235,-2.2359,-2.2367,-2.2375,-2.2382,-2.2387,-2.2387,-2.2395,-2.2406,-2.2412,-2.2425,-2.2435,-2.2445,-2.2448,-2.2444,-2.2445,-2.2447,-2.2447,-2.2446,-2.2445,-2.2409,-2.2444,-2.2443,-2.2443,-2.2443,-2.2443,-2.2364,-2.2373,-2.2379,-2.239,-2.2394,-2.2401,-2.2409,-2.2412,-2.2421,-2.2431,-2.243,-2.2442,-2.2448,-2.2459,-2.2464,-2.2472,-2.2468,-2.2473,-2.2474,-2.2474,-2.2475,-2.2445,-2.2474,-2.2474,-2.2474,-2.2474,-2.2474,0,-2.2396,-2.2399,-2.2408,-2.2418,-2.2425,-2.2421,-2.2428,-2.2434,-2.2445,-2.2451,-2.2458,-2.247,-2.248,-2.2483,-2.2492,-2.2498,-2.2497,-2.2501,-2.25,-2.25,-2.2479,-2.2475,-2.2502,-2.2502,-2.2502,-2.2502,-2.2502,-2.2502,-2.2413,-2.2428,-2.2428,-2.2445,-2.2448,-2.2459,-2.2464,-2.2469,-2.2473,-2.2486,-2.2494,-2.2496,-2.25,-2.2509,-2.2517,-2.2518,-2.2521,-2.2525,-2.2525,-2.2505,-2.2502,-2.2499,-2.2496,-2.2526,-2.2526,-2.2545,-2.2546,-2.2546]}]]